| time (UTC) | temp F | wind direction | speed MPH | gust MPH | rain 1hr in | rain 24hr in | rain mn in | humidity % | barometer mb |
| 20260510092709 | 46 | 95 | 0.0 | 0.0 | 0.00 | 0.48 | 0.00 | 94 | 1011.4 |
| 20260510091654 | 46 | 94 | 0.0 | 0.0 | 0.00 | 0.48 | 0.00 | 94 | 1011.4 |
| 20260510090654 | 46 | 94 | 0.0 | 0.0 | 0.00 | 0.48 | 0.00 | 94 | 1011.3 |
| 20260510085654 | 45 | 94 | 0.0 | 0.0 | 0.00 | 0.48 | 0.00 | 94 | 1011.3 |
| 20260510084655 | 45 | 94 | 0.0 | 0.0 | 0.00 | 0.48 | 0.00 | 94 | 1011.3 |
| 20260510083654 | 45 | 94 | 0.0 | 0.0 | 0.00 | 0.48 | 0.00 | 94 | 1011.3 |
| 20260510083043 | 45 | 94 | 0.0 | 0.0 | 0.00 | 0.48 | 0.00 | 94 | 1011.4 |
| 20260510082715 | 45 | 94 | 0.0 | 0.0 | 0.00 | 0.48 | 0.00 | 94 | 1011.4 |
| 20260510080644 | 44 | 94 | 0.0 | 0.0 | 0.00 | 0.48 | 0.00 | 93 | 1011.2 |
| 20260510075643 | 44 | 94 | 0.0 | 0.0 | 0.00 | 0.48 | 0.00 | 93 | 1011.3 |
| 20260510075128 | 45 | 94 | 0.0 | 0.0 | 0.00 | 0.48 | 0.00 | 93 | 1011.3 |
| 20260510073644 | 45 | 94 | 0.0 | 0.0 | 0.00 | 0.48 | 0.00 | 93 | 1011.1 |
| 20260510072645 | 45 | 94 | 0.0 | 0.0 | 0.00 | 0.48 | 0.00 | 93 | 1010.8 |
| 20260510071638 | 46 | 94 | 0.0 | 0.0 | 0.00 | 0.48 | 0.00 | 93 | 1010.8 |
| 20260510070638 | 46 | 94 | 0.0 | 0.0 | 0.00 | 0.48 | 0.00 | 93 | 1010.7 |
| 20260510065638 | 47 | 94 | 0.0 | 0.0 | 0.00 | 0.48 | 0.00 | 93 | 1010.6 |
| 20260510064636 | 47 | 94 | 0.0 | 0.0 | 0.00 | 0.48 | 0.00 | 93 | 1010.6 |
| 20260510063636 | 47 | 94 | 0.0 | 0.0 | 0.00 | 0.48 | 0.00 | 93 | 1011.1 |
| 20260510062635 | 47 | 94 | 0.0 | 0.0 | 0.00 | 0.48 | 0.00 | 94 | 1010.8 |
| 20260510061636 | 47 | 94 | 0.0 | 0.0 | 0.00 | 0.48 | 0.00 | 94 | 1010.8 |
| 20260510061116 | 47 | 94 | 0.0 | 0.0 | 0.00 | 0.48 | 0.00 | 94 | 1011.2 |
| 20260510055635 | 47 | 94 | 0.0 | 0.0 | 0.00 | 0.48 | 0.00 | 94 | 1011.2 |
| 20260510055602 | 47 | 94 | 0.0 | 0.0 | 0.00 | 0.48 | 0.00 | 94 | 1011.2 |
| 20260510054103 | 47 | 94 | 0.0 | 0.0 | 0.00 | 0.48 | 0.00 | 93 | 1011.3 |
| 20260510053124 | 47 | 94 | 0.0 | 0.0 | 0.00 | 0.48 | 0.00 | 93 | 1011.6 |
| 20260510052111 | 47 | 94 | 0.0 | 0.0 | 0.00 | 0.48 | 0.00 | 93 | 1011.6 |
| 20260510050622 | 47 | 94 | 0.0 | 0.0 | 0.00 | 0.48 | 0.00 | 93 | 1011.5 |
| 20260510045621 | 47 | 94 | 0.0 | 0.0 | 0.00 | 0.48 | 0.00 | 93 | 1011.4 |
| 20260510044623 | 47 | 94 | 0.0 | 0.0 | 0.00 | 0.48 | 0.00 | 93 | 1011.4 |
| 20260510043623 | 47 | 94 | 0.0 | 0.0 | 0.00 | 0.48 | 0.00 | 93 | 1011.7 |
| 20260510042616 | 47 | 94 | 0.0 | 0.0 | 0.00 | 0.48 | 0.00 | 93 | 1011.6 |
| 20260510041615 | 47 | 94 | 0.0 | 0.0 | 0.00 | 0.48 | 0.00 | 93 | 1011.6 |
| 20260510040614 | 47 | 94 | 0.0 | 0.0 | 0.00 | 0.48 | 0.00 | 93 | 1011.7 |
| 20260510035614 | 47 | 94 | 0.0 | 0.0 | 0.00 | 0.48 | 0.48 | 93 | 1011.7 |
| 20260510034608 | 47 | 94 | 0.0 | 0.0 | 0.00 | 0.48 | 0.48 | 93 | 1011.7 |
| 20260510033607 | 47 | 94 | 0.0 | 0.0 | 0.00 | 0.48 | 0.48 | 93 | 1011.6 |
| 20260510033046 | 47 | 94 | 0.0 | 0.0 | 0.00 | 0.48 | 0.48 | 93 | 1011.8 |
| 20260510031606 | 47 | 94 | 0.0 | 0.0 | 0.00 | 0.48 | 0.48 | 93 | 1011.8 |
| 20260510030606 | 47 | 94 | 0.0 | 0.0 | 0.00 | 0.48 | 0.48 | 93 | 1012.1 |
| 20260510030043 | 47 | 94 | 0.0 | 0.0 | 0.00 | 0.48 | 0.48 | 93 | 1012.3 |
| 20260510024604 | 47 | 94 | 0.0 | 0.0 | 0.00 | 0.48 | 0.48 | 93 | 1012.3 |
| 20260510023606 | 47 | 94 | 0.0 | 0.0 | 0.00 | 0.48 | 0.48 | 93 | 1012.2 |
| 20260510023044 | 47 | 94 | 0.0 | 0.0 | 0.00 | 0.48 | 0.48 | 93 | 1012.3 |
| 20260510021604 | 47 | 94 | 0.0 | 0.0 | 0.00 | 0.48 | 0.48 | 93 | 1012.3 |
| 20260510021102 | 47 | 94 | 0.0 | 0.0 | 0.00 | 0.48 | 0.48 | 93 | 1012.3 |
| 20260510015603 | 47 | 94 | 0.0 | 0.0 | 0.00 | 0.48 | 0.48 | 93 | 1012.3 |
| 20260510014603 | 47 | 94 | 0.0 | 0.0 | 0.00 | 0.48 | 0.48 | 93 | 1012.3 |
| 20260510014522 | 47 | 94 | 0.0 | 0.0 | 0.01 | 0.48 | 0.48 | 93 | 1012.3 |
| 20260510012603 | 47 | 94 | 0.0 | 1.0 | 0.01 | 0.48 | 0.48 | 93 | 1012.3 |
| 20260510011602 | 47 | 94 | 0.0 | 3.0 | 0.02 | 0.48 | 0.48 | 93 | 1012.3 |
| 20260510010556 | 47 | 95 | 1.0 | 3.0 | 0.02 | 0.48 | 0.48 | 93 | 1012.1 |
| 20260510005555 | 47 | 125 | 0.0 | 3.0 | 0.02 | 0.48 | 0.48 | 93 | 1011.9 |
| 20260510004555 | 47 | 126 | 0.0 | 0.0 | 0.02 | 0.48 | 0.48 | 93 | 1011.9 |
| 20260510003555 | 47 | 126 | 0.0 | 0.0 | 0.02 | 0.47 | 0.47 | 92 | 1011.8 |
| 20260510002554 | 47 | 126 | 0.0 | 0.0 | 0.02 | 0.47 | 0.47 | 92 | 1012.1 |
| 20260510001551 | 47 | 126 | 0.0 | 2.0 | 0.02 | 0.46 | 0.46 | 92 | 1012.1 |
| 20260510000552 | 47 | 126 | 0.0 | 2.0 | 0.03 | 0.46 | 0.46 | 92 | 1012.3 |
| 20260509235551 | 47 | 126 | 0.0 | 3.0 | 0.04 | 0.46 | 0.46 | 92 | 1012.3 |
| 20260509234549 | 47 | 122 | 1.0 | 3.0 | 0.05 | 0.46 | 0.46 | 92 | 1012.3 |
| 20260509234026 | 47 | 122 | 0.0 | 2.0 | 0.05 | 0.45 | 0.45 | 92 | 1012.3 |
| 20260509232547 | 47 | 122 | 0.0 | 0.0 | 0.05 | 0.45 | 0.45 | 92 | 1012.2 |
| 20260509231547 | 47 | 122 | 1.0 | 3.0 | 0.05 | 0.44 | 0.44 | 92 | 1012.2 |
| 20260509230547 | 47 | 120 | 1.0 | 2.0 | 0.05 | 0.43 | 0.43 | 92 | 1011.9 |
| 20260509225546 | 47 | 121 | 0.0 | 3.0 | 0.04 | 0.42 | 0.42 | 92 | 1011.9 |
| 20260509225025 | 47 | 116 | 0.0 | 3.0 | 0.03 | 0.41 | 0.41 | 92 | 1011.9 |
| 20260509223547 | 47 | 100 | 1.0 | 3.0 | 0.03 | 0.40 | 0.41 | 92 | 1011.9 |
| 20260509222546 | 47 | 85 | 0.0 | 3.0 | 0.05 | 0.40 | 0.40 | 92 | 1012.2 |
| 20260509221547 | 48 | 59 | 1.0 | 3.0 | 0.09 | 0.39 | 0.39 | 92 | 1012.2 |
| 20260509220546 | 48 | 58 | 1.0 | 3.0 | 0.13 | 0.38 | 0.38 | 92 | 1012.2 |
| 20260509215533 | 48 | 43 | 1.0 | 5.0 | 0.16 | 0.38 | 0.38 | 92 | 1012.3 |
| 20260509215019 | 48 | 23 | 1.0 | 3.0 | 0.18 | 0.38 | 0.38 | 92 | 1012.3 |
| 20260509213532 | 48 | 21 | 2.0 | 5.0 | 0.19 | 0.37 | 0.37 | 92 | 1012.4 |
| 20260509212532 | 48 | 24 | 1.0 | 3.0 | 0.18 | 0.34 | 0.35 | 92 | 1012.5 |
| 20260509211532 | 48 | 24 | 1.0 | 3.0 | 0.14 | 0.30 | 0.30 | 92 | 1012.5 |
| 20260509210533 | 48 | 24 | 1.0 | 3.0 | 0.09 | 0.25 | 0.25 | 91 | 1012.5 |
| 20260509210008 | 48 | 31 | 1.0 | 3.0 | 0.06 | 0.22 | 0.22 | 91 | 1012.4 |
| 20260509204523 | 48 | 29 | 1.0 | 3.0 | 0.05 | 0.20 | 0.20 | 91 | 1012.4 |
| 20260509203523 | 48 | 42 | 1.0 | 3.0 | 0.03 | 0.18 | 0.18 | 91 | 1012.4 |
| 20260509202522 | 48 | 42 | 1.0 | 3.0 | 0.01 | 0.16 | 0.17 | 91 | 1012.3 |
| 20260509201523 | 48 | 42 | 2.0 | 5.0 | 0.01 | 0.16 | 0.16 | 91 | 1012.4 |
| 20260509200520 | 49 | 50 | 1.0 | 3.0 | 0.01 | 0.16 | 0.16 | 91 | 1012.4 |
| 20260509195522 | 49 | 50 | 1.0 | 3.0 | 0.00 | 0.15 | 0.16 | 91 | 1012.6 |
| 20260509194520 | 49 | 34 | 1.0 | 3.0 | 0.00 | 0.15 | 0.15 | 91 | 1012.3 |
| 20260509193520 | 49 | 34 | 1.0 | 3.0 | 0.00 | 0.15 | 0.15 | 91 | 1012.3 |
| 20260509193004 | 49 | 4 | 1.0 | 6.0 | 0.00 | 0.15 | 0.15 | 91 | 1012.1 |
| 20260509191521 | 49 | 358 | 2.0 | 6.0 | 0.00 | 0.15 | 0.15 | 91 | 1012.7 |
| 20260509190510 | 48 | 54 | 1.0 | 3.0 | 0.00 | 0.15 | 0.15 | 91 | 1012.7 |
| 20260509185510 | 48 | 52 | 3.0 | 6.0 | 0.00 | 0.15 | 0.15 | 91 | 1012.3 |
| 20260509184511 | 48 | 69 | 2.0 | 4.0 | 0.01 | 0.15 | 0.15 | 91 | 1012.8 |
| 20260509183510 | 48 | 72 | 2.0 | 4.0 | 0.02 | 0.15 | 0.15 | 91 | 1012.8 |
| 20260509182511 | 47 | 354 | 0.0 | 5.0 | 0.02 | 0.15 | 0.15 | 91 | 1013.0 |
| 20260509181511 | 47 | 301 | 0.0 | 0.0 | 0.03 | 0.15 | 0.15 | 91 | 1013.3 |
| 20260509180456 | 47 | 301 | 0.0 | 0.0 | 0.03 | 0.15 | 0.15 | 91 | 1013.3 |
| 20260509175457 | 47 | 301 | 0.0 | 0.0 | 0.03 | 0.15 | 0.15 | 91 | 1013.4 |
| 20260509174457 | 47 | 83 | 0.0 | 0.0 | 0.03 | 0.14 | 0.14 | 91 | 1013.4 |
| 20260509173455 | 47 | 42 | 0.0 | 0.0 | 0.03 | 0.13 | 0.14 | 91 | 1013.4 |
| 20260509172455 | 47 | 35 | 0.0 | 0.0 | 0.03 | 0.13 | 0.13 | 91 | 1013.4 |
| 20260509171453 | 46 | 33 | 0.0 | 0.0 | 0.03 | 0.12 | 0.12 | 91 | 1013.9 |
| 20260509170452 | 46 | 301 | 0.0 | 0.0 | 0.04 | 0.12 | 0.12 | 90 | 1013.9 |
| 20260509165452 | 46 | 301 | 0.0 | 0.0 | 0.04 | 0.12 | 0.12 | 90 | 1013.9 |
| 20260509164453 | 46 | 301 | 0.0 | 0.0 | 0.03 | 0.11 | 0.11 | 90 | 1014.0 |
| 20260509163452 | 46 | 301 | 0.0 | 0.0 | 0.03 | 0.10 | 0.10 | 90 | 1014.0 |
| 20260509162452 | 46 | 147 | 0.0 | 0.0 | 0.03 | 0.10 | 0.10 | 90 | 1013.9 |
| 20260509161452 | 46 | 301 | 0.0 | 0.0 | 0.02 | 0.09 | 0.09 | 90 | 1013.8 |
| 20260509160940 | 46 | 301 | 0.0 | 0.0 | 0.02 | 0.08 | 0.08 | 90 | 1013.8 |
| 20260509155453 | 46 | 50 | 1.0 | 3.0 | 0.02 | 0.08 | 0.08 | 90 | 1013.9 |
| 20260509154926 | 46 | 11 | 1.0 | 4.0 | 0.02 | 0.08 | 0.08 | 90 | 1014.2 |
| 20260509153450 | 46 | 189 | 0.0 | 0.0 | 0.01 | 0.07 | 0.07 | 90 | 1014.2 |
| 20260509152450 | 45 | 301 | 0.0 | 0.0 | 0.02 | 0.07 | 0.07 | 90 | 1014.4 |
| 20260509151450 | 45 | 187 | 0.0 | 0.0 | 0.03 | 0.07 | 0.07 | 90 | 1014.4 |
| 20260509150448 | 45 | 187 | 0.0 | 0.0 | 0.02 | 0.06 | 0.06 | 90 | 1014.4 |
| 20260509145439 | 45 | 301 | 0.0 | 1.0 | 0.03 | 0.06 | 0.06 | 90 | 1014.6 |
| 20260509144438 | 45 | 301 | 0.0 | 0.0 | 0.04 | 0.06 | 0.06 | 90 | 1014.6 |
| 20260509143436 | 45 | 301 | 0.0 | 0.0 | 0.04 | 0.06 | 0.06 | 91 | 1014.6 |
| 20260509142437 | 44 | 301 | 1.0 | 4.0 | 0.04 | 0.05 | 0.05 | 90 | 1014.9 |
| 20260509141427 | 44 | 190 | 0.0 | 2.0 | 0.03 | 0.04 | 0.04 | 91 | 1014.9 |
| 20260509140427 | 44 | 301 | 0.0 | 1.0 | 0.03 | 0.04 | 0.04 | 91 | 1014.9 |
| 20260509135425 | 44 | 301 | 0.0 | 2.0 | 0.03 | 0.03 | 0.03 | 91 | 1014.8 |
| 20260509134427 | 43 | 301 | 0.0 | 1.0 | 0.02 | 0.02 | 0.02 | 90 | 1014.4 |
| 20260509133426 | 43 | 301 | 0.0 | 0.0 | 0.02 | 0.02 | 0.02 | 90 | 1014.4 |
| 20260509133352 | 42 | 301 | 0.0 | 0.0 | 0.01 | 0.01 | 0.01 | 90 | 1014.4 |
| 20260509131426 | 42 | 301 | 0.0 | 0.0 | 0.01 | 0.01 | 0.01 | 90 | 1014.4 |
| 20260509130424 | 42 | 301 | 0.0 | 0.0 | 0.01 | 0.01 | 0.01 | 90 | 1014.4 |
| 20260509125903 | 42 | 301 | 0.0 | 1.0 | 0.00 | 0.00 | 0.00 | 89 | 1014.5 |
| 20260509124424 | 41 | 301 | 0.0 | 2.0 | 0.00 | 0.00 | 0.00 | 89 | 1014.7 |
| 20260509123424 | 41 | 301 | 0.0 | 0.0 | 0.00 | 0.00 | 0.00 | 89 | 1014.7 |
| 20260509122423 | 41 | 301 | 0.0 | 0.0 | 0.00 | 0.00 | 0.00 | 89 | 1014.8 |
| 20260509121412 | 40 | 301 | 0.0 | 0.0 | 0.00 | 0.00 | 0.00 | 89 | 1014.8 |
| 20260509120412 | 40 | 301 | 0.0 | 0.0 | 0.00 | 0.00 | 0.00 | 90 | 1014.8 |
| 20260509115412 | 39 | 301 | 0.0 | 2.0 | 0.00 | 0.00 | 0.00 | 90 | 1014.9 |
| 20260509114412 | 38 | 301 | 0.0 | 1.0 | 0.00 | 0.00 | 0.00 | 90 | 1014.9 |
| 20260509113410 | 38 | 187 | 0.0 | 2.0 | 0.00 | 0.00 | 0.00 | 90 | 1014.9 |
| 20260509112410 | 38 | 301 | 1.0 | 3.0 | 0.00 | 0.00 | 0.00 | 90 | 1014.7 |
| 20260509111355 | 37 | 301 | 0.0 | 0.0 | 0.00 | 0.00 | 0.00 | 90 | 1014.9 |
| 20260509110829 | 36 | 301 | 0.0 | 0.0 | 0.00 | 0.00 | 0.00 | 89 | 1014.9 |
| 20260509105357 | 35 | 301 | 0.0 | 0.0 | 0.00 | 0.00 | 0.00 | 89 | 1014.6 |
| 20260509104356 | 35 | 301 | 0.0 | 0.0 | 0.00 | 0.00 | 0.00 | 89 | 1014.7 |
| 20260509103355 | 35 | 301 | 0.0 | 0.0 | 0.00 | 0.00 | 0.00 | 89 | 1014.7 |
| 20260509102839 | 34 | 109 | 0.0 | 0.0 | 0.00 | 0.00 | 0.00 | 88 | 1014.6 |
| 20260509101353 | 34 | 301 | 0.0 | 0.0 | 0.00 | 0.00 | 0.00 | 88 | 1014.4 |
| 20260509100354 | 33 | 108 | 0.0 | 0.0 | 0.00 | 0.00 | 0.00 | 87 | 1014.4 |
| 20260509095353 | 33 | 109 | 0.0 | 0.0 | 0.00 | 0.00 | 0.00 | 87 | 1014.1 |
| 20260509094837 | 33 | 108 | 0.0 | 0.0 | 0.00 | 0.00 | 0.00 | 87 | 1014.0 |
| 20260509093353 | 33 | 108 | 0.0 | 0.0 | 0.00 | 0.00 | 0.00 | 87 | 1014.0 |